When you browse on this site, cookies collect data to enhance your experience and personalize the content and advertising you see.
Visit our Privacy Policy to learn more. By continuing to use the site, you agree to this use of cookies and data.
  • In Hungary
  • List of Countries
  • For 7 days
  • Water Temperature
  • Weather Map
  • News
  • Weather Widgets
  • user-avatar
    Login

    Hourly Weather Nevs'ke

    Today, 10 April, Friday

    Time Temperature Precipitation Wind Pressure Humidity
    00:00 +10°C° 0 mm 2 mps 751 mmHg 61%
    01:00 +10°C° 0 mm 2 mps 750 mmHg 63%
    02:00 +9°C° 0 mm 2 mps 750 mmHg 65%
    03:00 +9°C° 0 mm 2 mps 750 mmHg 66%
    04:00 +9°C° 0 mm 2 mps 749 mmHg 68%
    05:00 +8°C° 0 mm 2 mps 749 mmHg 70%
    06:00 +8°C° 0 mm 2 mps 749 mmHg 72%
    07:00 +10°C° 0 mm 3 mps 749 mmHg 66%
    08:00 +11°C° 0 mm 3 mps 748 mmHg 60%
    09:00 +13°C° 0 mm 3 mps 748 mmHg 54%
    10:00 +15°C° 0 mm 4 mps 748 mmHg 49%
    11:00 +17°C° 0 mm 4 mps 748 mmHg 44%
    12:00 +17°C° 0 mm 5 mps 747 mmHg 38%
    13:00 +19°C° 0 mm 4 mps 747 mmHg 37%
    14:00 +19°C° 0 mm 4 mps 746 mmHg 35%
    15:00 +19°C° 0 mm 4 mps 746 mmHg 33%
    16:00 +19°C° 0 mm 4 mps 745 mmHg 36%
    17:00 +18°C° 0 mm 3 mps 745 mmHg 39%
    18:00 +18°C° 0 mm 3 mps 745 mmHg 42%
    19:00 +15°C° 1.6 mm 4 mps 745 mmHg 56%
    20:00 +12°C° 1.6 mm 4 mps 746 mmHg 71%
    21:00 +9°C° 1.6 mm 5 mps 746 mmHg 85%
    22:00 +8°C° 0.3 mm 5 mps 746 mmHg 84%
    23:00 +8°C° 0.3 mm 5 mps 746 mmHg 83%

    Tomorrow, 11 April, Saturday

    Time Temperature Precipitation Wind Pressure Humidity
    00:00 +8°C° 0.3 mm 4 mps 746 mmHg 83%
    01:00 +7°C° 0.1 mm 4 mps 746 mmHg 82%
    02:00 +7°C° 0.1 mm 4 mps 746 mmHg 81%
    03:00 +6°C° 0.1 mm 4 mps 747 mmHg 80%
    04:00 +6°C° 0 mm 4 mps 747 mmHg 79%
    05:00 +5°C° 0 mm 5 mps 747 mmHg 78%
    06:00 +3°C° 0 mm 5 mps 747 mmHg 77%
    07:00 +5°C° 0 mm 5 mps 748 mmHg 69%
    08:00 +5°C° 0 mm 6 mps 748 mmHg 61%
    09:00 +7°C° 0 mm 6 mps 749 mmHg 53%
    10:00 +8°C° 0 mm 6 mps 749 mmHg 49%
    11:00 +9°C° 0 mm 6 mps 749 mmHg 45%
    12:00 +10°C° 0 mm 6 mps 749 mmHg 40%
    13:00 +10°C° 0 mm 6 mps 749 mmHg 40%
    14:00 +10°C° 0 mm 7 mps 749 mmHg 40%
    15:00 +10°C° 0 mm 7 mps 749 mmHg 39%
    16:00 +10°C° 0 mm 7 mps 749 mmHg 41%
    17:00 +9°C° 0 mm 7 mps 749 mmHg 42%
    18:00 +9°C° 0 mm 7 mps 749 mmHg 44%
    19:00 +8°C° 0.2 mm 6 mps 750 mmHg 50%
    20:00 +7°C° 0.2 mm 5 mps 750 mmHg 56%
    21:00 +6°C° 0.2 mm 5 mps 751 mmHg 63%
    22:00 +5°C° 0.1 mm 5 mps 751 mmHg 65%
    23:00 +4°C° 0.1 mm 4 mps 752 mmHg 68%

    Day after tomorrow, 12 April, Sunday

    Time Temperature Precipitation Wind Pressure Humidity
    00:00 +3°C° 0.1 mm 4 mps 752 mmHg 70%
    01:00 +3°C° 0 mm 4 mps 752 mmHg 67%
    02:00 +1°C° 0 mm 4 mps 753 mmHg 65%
    03:00 +1°C° 0 mm 4 mps 753 mmHg 62%
    04:00 0°C° 0 mm 4 mps 753 mmHg 64%
    05:00 0°C° 0 mm 4 mps 754 mmHg 65%
    06:00 0°C° 0 mm 4 mps 754 mmHg 67%
    07:00 +1°C° 0 mm 5 mps 755 mmHg 62%
    08:00 +2°C° 0 mm 5 mps 755 mmHg 58%
    09:00 +3°C° 0 mm 6 mps 755 mmHg 53%
    10:00 +4°C° 0 mm 6 mps 756 mmHg 48%
    11:00 +5°C° 0 mm 6 mps 756 mmHg 43%
    12:00 +7°C° 0 mm 6 mps 756 mmHg 38%
    13:00 +8°C° 0 mm 6 mps 756 mmHg 36%
    14:00 +8°C° 0 mm 6 mps 756 mmHg 35%
    15:00 +8°C° 0 mm 6 mps 756 mmHg 33%
    16:00 +8°C° 0 mm 6 mps 756 mmHg 35%
    17:00 +8°C° 0 mm 5 mps 756 mmHg 37%
    18:00 +8°C° 0 mm 5 mps 756 mmHg 39%
    19:00 +6°C° 0 mm 4 mps 756 mmHg 43%
    20:00 +5°C° 0 mm 3 mps 756 mmHg 46%
    21:00 +5°C° 0 mm 2 mps 756 mmHg 50%
    22:00 +5°C° 0 mm 2 mps 756 mmHg 51%
    23:00 +4°C° 0 mm 2 mps 756 mmHg 52%

    13 April, Monday

    Time Temperature Precipitation Wind Pressure Humidity
    00:00 +4°C° 0 mm 2 mps 756 mmHg 53%
    01:00 +4°C° 0 mm 2 mps 756 mmHg 53%
    02:00 +3°C° 0 mm 2 mps 756 mmHg 54%
    03:00 +3°C° 0 mm 2 mps 756 mmHg 54%
    04:00 +3°C° 0 mm 2 mps 756 mmHg 55%
    05:00 +2°C° 0 mm 2 mps 756 mmHg 55%
    06:00 +2°C° 0 mm 2 mps 756 mmHg 56%
    07:00 +3°C° 0 mm 3 mps 756 mmHg 50%
    08:00 +5°C° 0 mm 4 mps 756 mmHg 45%
    09:00 +7°C° 0 mm 4 mps 756 mmHg 40%
    10:00 +8°C° 0 mm 4 mps 755 mmHg 37%
    11:00 +10°C° 0 mm 5 mps 755 mmHg 35%
    12:00 +12°C° 0 mm 5 mps 754 mmHg 32%
    13:00 +12°C° 0 mm 5 mps 754 mmHg 33%
    14:00 +13°C° 0 mm 5 mps 754 mmHg 34%
    15:00 +13°C° 0 mm 5 mps 753 mmHg 34%
    16:00 +13°C° 0 mm 5 mps 753 mmHg 36%
    17:00 +13°C° 0 mm 5 mps 752 mmHg 38%
    18:00 +12°C° 0 mm 4 mps 752 mmHg 40%
    19:00 +11°C° 0 mm 4 mps 752 mmHg 43%
    20:00 +10°C° 0 mm 4 mps 752 mmHg 47%
    21:00 +9°C° 0 mm 3 mps 751 mmHg 50%
    22:00 +7°C° 0 mm 4 mps 751 mmHg 52%
    23:00 +6°C° 0 mm 4 mps 751 mmHg 53%

    14 April, Tuesday

    Time Temperature Precipitation Wind Pressure Humidity
    00:00 +6°C° 0 mm 5 mps 751 mmHg 55%
    01:00 +5°C° 0 mm 5 mps 750 mmHg 56%
    02:00 +5°C° 0 mm 5 mps 750 mmHg 56%
    03:00 +3°C° 0 mm 5 mps 750 mmHg 57%
    04:00 +3°C° 0 mm 5 mps 749 mmHg 57%
    05:00 +2°C° 0 mm 5 mps 749 mmHg 58%
    06:00 +3°C° 0 mm 4 mps 749 mmHg 58%
    07:00 +5°C° 0 mm 5 mps 749 mmHg 54%
    08:00 +5°C° 0 mm 6 mps 748 mmHg 51%
    09:00 +8°C° 0 mm 7 mps 748 mmHg 47%
    10:00 +9°C° 0 mm 7 mps 747 mmHg 44%
    11:00 +10°C° 0 mm 7 mps 747 mmHg 42%
    12:00 +11°C° 0 mm 8 mps 746 mmHg 39%
    13:00 +12°C° 0 mm 8 mps 746 mmHg 39%
    14:00 +12°C° 0 mm 8 mps 745 mmHg 38%
    15:00 +13°C° 0 mm 8 mps 745 mmHg 38%
    16:00 +12°C° 0 mm 7 mps 745 mmHg 40%
    17:00 +13°C° 0 mm 6 mps 744 mmHg 42%
    18:00 +11°C° 0 mm 6 mps 744 mmHg 44%
    19:00 +10°C° 0.1 mm 5 mps 744 mmHg 49%
    20:00 +9°C° 0.1 mm 5 mps 744 mmHg 54%
    21:00 +8°C° 0.1 mm 4 mps 744 mmHg 60%
    22:00 +8°C° 0.4 mm 4 mps 743 mmHg 66%
    23:00 +7°C° 0.4 mm 5 mps 743 mmHg 72%

    15 April, Wednesday

    Time Temperature Precipitation Wind Pressure Humidity
    00:00 +7°C° 0.4 mm 5 mps 742 mmHg 78%
    01:00 +7°C° 1.1 mm 5 mps 742 mmHg 82%
    02:00 +7°C° 1.1 mm 5 mps 742 mmHg 85%
    03:00 +7°C° 1.1 mm 5 mps 741 mmHg 89%
    04:00 +4°C° 1.8 mm 6 mps 741 mmHg 91%
    05:00 +2°C° 1.8 mm 7 mps 741 mmHg 93%
    06:00 -1°C° 1.8 mm 8 mps 741 mmHg 95%
    07:00 -1°C° 1.1 mm 7 mps 741 mmHg 90%
    08:00 +1°C° 1.1 mm 6 mps 742 mmHg 86%
    09:00 +1°C° 1.1 mm 6 mps 742 mmHg 82%
    10:00 +2°C° 0 mm 6 mps 742 mmHg 72%
    11:00 +4°C° 0 mm 6 mps 743 mmHg 61%
    12:00 +7°C° 0 mm 6 mps 744 mmHg 51%
    13:00 +7°C° 0 mm 5 mps 744 mmHg 48%
    14:00 +8°C° 0 mm 5 mps 744 mmHg 46%
    15:00 +8°C° 0 mm 5 mps 744 mmHg 44%
    16:00 +7°C° 0.2 mm 5 mps 744 mmHg 50%
    17:00 +6°C° 0.2 mm 5 mps 744 mmHg 56%
    18:00 +6°C° 0.2 mm 5 mps 744 mmHg 62%
    19:00 +5°C° 0.4 mm 5 mps 744 mmHg 68%
    20:00 +3°C° 0.4 mm 5 mps 745 mmHg 74%
    21:00 +2°C° 0.4 mm 5 mps 745 mmHg 79%
    22:00 +2°C° 0.1 mm 5 mps 745 mmHg 76%
    23:00 +1°C° 0.1 mm 4 mps 745 mmHg 74%
    Show more